Time,TemperatureF,DewpointF,PressureIn,WindDirection,WindDirectionDegrees,WindSpeedMPH,WindSpeedGustMPH,Humidity,HourlyPrecipIn,Conditions,Clouds,dailyrainin,SoftwareType,DateUTC
2013-07-09 00:00:00,52.8,53.0,30.22,West,270,3.3,8.2,100,0.00,,,0.00,Rainwise IP-100,2013-07-09 07:00:00,
2013-07-09 00:05:00,52.8,53.0,30.22,West,270,1.4,7.2,100,0.00,,,0.00,Rainwise IP-100,2013-07-09 07:05:00,
2013-07-09 00:10:00,52.8,53.0,30.23,West,270,4.2,6.3,100,0.00,,,0.00,Rainwise IP-100,2013-07-09 07:10:00,
2013-07-09 00:15:00,52.8,53.0,30.22,WSW,247,0.0,8.9,100,0.00,,,0.00,Rainwise IP-100,2013-07-09 07:15:00,
2013-07-09 00:20:00,52.8,53.0,30.22,West,270,2.3,7.7,100,0.00,,,0.00,Rainwise IP-100,2013-07-09 07:20:00,
2013-07-09 00:25:00,52.8,53.0,30.23,WNW,292,1.6,9.6,100,0.00,,,0.00,Rainwise IP-100,2013-07-09 07:25:00,
2013-07-09 00:30:00,52.7,53.0,30.23,WNW,292,5.1,8.6,100,0.00,,,0.00,Rainwise IP-100,2013-07-09 07:30:00,
2013-07-09 00:35:00,52.7,53.0,30.23,SSW,202,2.1,8.4,100,0.00,,,0.00,Rainwise IP-100,2013-07-09 07:35:00,
2013-07-09 00:40:00,52.8,53.0,30.23,SSW,202,4.4,7.9,100,0.00,,,0.00,Rainwise IP-100,2013-07-09 07:40:00,
2013-07-09 00:45:00,52.8,53.0,30.23,SW,225,5.1,9.3,100,0.00,,,0.00,Rainwise IP-100,2013-07-09 07:45:00,
2013-07-09 00:52:00,52.8,53.0,30.23,WNW,292,2.1,7.9,100,0.00,,,0.00,Rainwise IP-100,2013-07-09 07:52:00,
2013-07-09 00:57:00,52.8,53.0,30.23,West,270,3.7,5.6,100,0.00,,,0.00,Rainwise IP-100,2013-07-09 07:57:00,
2013-07-09 01:02:00,52.7,53.0,30.23,WSW,247,3.3,8.2,100,0.00,,,0.00,Rainwise IP-100,2013-07-09 08:02:00,
2013-07-09 01:07:00,52.7,53.0,30.23,SW,225,0.0,8.2,100,0.00,,,0.00,Rainwise IP-100,2013-07-09 08:07:00,
2013-07-09 01:12:00,52.7,53.0,30.23,WSW,247,3.7,9.6,100,0.00,,,0.00,Rainwise IP-100,2013-07-09 08:12:00,
2013-07-09 01:17:00,52.6,53.0,30.23,WNW,292,3.3,8.4,100,0.00,,,0.00,Rainwise IP-100,2013-07-09 08:17:00,
2013-07-09 01:22:00,52.5,53.0,30.23,SSE,157,3.0,6.8,100,0.00,,,0.00,Rainwise IP-100,2013-07-09 08:22:00,
2013-07-09 01:27:00,52.5,53.0,30.23,WSW,247,5.1,11.7,100,0.00,,,0.00,Rainwise IP-100,2013-07-09 08:27:00,
2013-07-09 01:32:00,52.5,53.0,30.23,WNW,292,4.9,8.2,100,0.00,,,0.00,Rainwise IP-100,2013-07-09 08:32:00,
2013-07-09 01:37:00,52.6,53.0,30.23,WSW,247,1.6,7.7,100,0.00,,,0.00,Rainwise IP-100,2013-07-09 08:37:00,
2013-07-09 01:42:00,52.6,53.0,30.23,SSW,202,3.3,6.5,100,0.00,,,0.00,Rainwise IP-100,2013-07-09 08:42:00,
2013-07-09 01:47:00,52.7,53.0,30.23,WNW,292,1.4,8.9,100,0.00,,,0.00,Rainwise IP-100,2013-07-09 08:47:00,
2013-07-09 01:50:00,52.7,53.0,30.23,WNW,292,1.4,6.8,100,0.00,,,0.00,Rainwise IP-100,2013-07-09 08:50:00,
2013-07-09 01:55:00,52.6,53.0,30.23,WSW,247,3.3,8.2,100,0.00,,,0.00,Rainwise IP-100,2013-07-09 08:55:00,
2013-07-09 02:00:00,52.5,53.0,30.23,South,180,0.0,8.2,100,0.00,,,0.00,Rainwise IP-100,2013-07-09 09:00:00,
2013-07-09 02:05:00,52.4,52.0,30.23,WSW,247,4.7,6.8,100,0.00,,,0.00,Rainwise IP-100,2013-07-09 09:05:00,
2013-07-09 02:10:00,52.4,52.0,30.23,NW,315,5.4,9.8,100,0.00,,,0.00,Rainwise IP-100,2013-07-09 09:10:00,
2013-07-09 02:15:00,52.4,52.0,30.23,SSE,157,2.6,10.7,100,0.00,,,0.00,Rainwise IP-100,2013-07-09 09:15:00,
2013-07-09 02:20:00,52.4,52.0,30.23,SW,225,2.3,11.9,100,0.00,,,0.00,Rainwise IP-100,2013-07-09 09:20:00,
2013-07-09 02:25:00,52.4,52.0,30.23,SW,225,6.8,8.6,100,0.00,,,0.00,Rainwise IP-100,2013-07-09 09:25:00,
2013-07-09 02:26:00,52.4,52.0,30.23,SE,135,1.2,8.6,100,0.00,,,0.00,Rainwise IP-100,2013-07-09 09:26:00,
2013-07-09 02:31:00,52.4,52.0,30.23,WSW,247,1.2,8.2,100,0.00,,,0.00,Rainwise IP-100,2013-07-09 09:31:00,
2013-07-09 02:36:00,52.4,52.0,30.23,WSW,247,2.6,7.2,100,0.00,,,0.00,Rainwise IP-100,2013-07-09 09:36:00,
2013-07-09 02:41:00,52.4,52.0,30.23,SW,225,9.3,9.3,100,0.00,,,0.00,Rainwise IP-100,2013-07-09 09:41:00,
2013-07-09 02:46:00,52.3,52.0,30.23,SW,225,1.2,10.7,100,0.00,,,0.00,Rainwise IP-100,2013-07-09 09:46:00,
2013-07-09 02:51:00,52.3,52.0,30.23,West,270,2.3,9.3,100,0.00,,,0.00,Rainwise IP-100,2013-07-09 09:51:00,
2013-07-09 02:56:00,52.2,52.0,30.23,SSE,157,1.2,7.9,100,0.00,,,0.00,Rainwise IP-100,2013-07-09 09:56:00,
2013-07-09 03:01:00,52.2,52.0,30.23,NNW,337,0.0,7.9,100,0.00,,,0.00,Rainwise IP-100,2013-07-09 10:01:00,
2013-07-09 03:06:00,52.1,52.0,30.23,SSW,202,6.5,8.4,100,0.00,,,0.00,Rainwise IP-100,2013-07-09 10:06:00,
2013-07-09 03:11:00,52.1,52.0,30.23,WNW,292,1.2,11.7,100,0.00,,,0.00,Rainwise IP-100,2013-07-09 10:11:00,
2013-07-09 03:16:00,52.1,52.0,30.24,South,180,0.0,7.2,100,0.00,,,0.00,Rainwise IP-100,2013-07-09 10:16:00,
2013-07-09 03:21:00,52.1,52.0,30.23,SW,225,2.1,7.2,100,0.00,,,0.00,Rainwise IP-100,2013-07-09 10:21:00,
2013-07-09 03:26:00,52.1,52.0,30.23,WSW,247,4.4,8.2,100,0.00,,,0.00,Rainwise IP-100,2013-07-09 10:26:00,
2013-07-09 03:31:00,52.1,52.0,30.23,SW,225,2.1,9.1,100,0.00,,,0.00,Rainwise IP-100,2013-07-09 10:31:00,
2013-07-09 03:36:00,52.0,52.0,30.23,WSW,247,1.6,9.1,100,0.00,,,0.00,Rainwise IP-100,2013-07-09 10:36:00,
2013-07-09 03:41:00,52.0,52.0,30.23,SE,135,2.3,9.8,100,0.00,,,0.00,Rainwise IP-100,2013-07-09 10:41:00,
2013-07-09 03:46:00,52.0,52.0,30.23,West,270,4.2,7.5,100,0.00,,,0.00,Rainwise IP-100,2013-07-09 10:46:00,
2013-07-09 03:51:00,51.9,52.0,30.23,WSW,247,2.1,7.2,100,0.00,,,0.00,Rainwise IP-100,2013-07-09 10:51:00,
2013-07-09 03:56:00,51.9,52.0,30.23,NE,45,0.0,7.5,100,0.00,,,0.00,Rainwise IP-100,2013-07-09 10:56:00,
2013-07-09 04:01:00,51.9,52.0,30.23,SSW,202,4.0,10.7,100,0.00,,,0.00,Rainwise IP-100,2013-07-09 11:01:00,
2013-07-09 04:06:00,51.9,52.0,30.23,SW,225,5.6,10.0,100,0.00,,,0.00,Rainwise IP-100,2013-07-09 11:06:00,
2013-07-09 04:11:00,51.8,52.0,30.23,SW,225,3.3,11.7,100,0.00,,,0.00,Rainwise IP-100,2013-07-09 11:11:00,
2013-07-09 04:16:00,51.8,52.0,30.23,West,270,2.3,10.3,100,0.00,,,0.00,Rainwise IP-100,2013-07-09 11:16:00,
2013-07-09 04:21:00,51.8,52.0,30.24,WNW,292,1.9,10.0,100,0.00,,,0.00,Rainwise IP-100,2013-07-09 11:21:00,
2013-07-09 04:26:00,51.8,52.0,30.24,West,270,2.3,6.8,100,0.00,,,0.00,Rainwise IP-100,2013-07-09 11:26:00,
2013-07-09 04:31:00,51.8,52.0,30.24,WSW,247,2.1,8.6,100,0.00,,,0.00,Rainwise IP-100,2013-07-09 11:31:00,
2013-07-09 04:36:00,51.7,52.0,30.24,West,270,1.6,10.7,100,0.00,,,0.00,Rainwise IP-100,2013-07-09 11:36:00,
2013-07-09 04:41:00,51.6,52.0,30.24,WSW,247,2.3,6.8,100,0.00,,,0.00,Rainwise IP-100,2013-07-09 11:41:00,
2013-07-09 04:46:00,51.6,52.0,30.24,SSE,157,0.0,8.4,100,0.00,,,0.00,Rainwise IP-100,2013-07-09 11:46:00,
2013-07-09 04:51:00,51.6,52.0,30.24,WSW,247,3.5,9.8,100,0.00,,,0.00,Rainwise IP-100,2013-07-09 11:51:00,
2013-07-09 04:56:00,51.6,52.0,30.24,WSW,247,2.3,8.9,100,0.00,,,0.00,Rainwise IP-100,2013-07-09 11:56:00,
2013-07-09 05:01:00,51.5,52.0,30.24,SSW,202,2.3,7.9,100,0.00,,,0.00,Rainwise IP-100,2013-07-09 12:01:00,
2013-07-09 05:06:00,51.5,52.0,30.24,WSW,247,3.0,11.7,100,0.00,,,0.00,Rainwise IP-100,2013-07-09 12:06:00,
2013-07-09 05:11:00,51.4,51.0,30.24,WNW,292,1.4,5.6,100,0.00,,,0.00,Rainwise IP-100,2013-07-09 12:11:00,
2013-07-09 05:16:00,51.4,51.0,30.24,SW,225,0.0,6.3,100,0.00,,,0.00,Rainwise IP-100,2013-07-09 12:16:00,
2013-07-09 05:21:00,51.2,51.0,30.24,West,270,3.7,7.2,100,0.00,,,0.00,Rainwise IP-100,2013-07-09 12:21:00,
2013-07-09 05:26:00,51.1,51.0,30.25,SE,135,1.4,6.5,100,0.00,,,0.00,Rainwise IP-100,2013-07-09 12:26:00,
2013-07-09 05:31:00,51.1,51.0,30.24,WSW,247,4.4,7.9,100,0.00,,,0.00,Rainwise IP-100,2013-07-09 12:31:00,
2013-07-09 05:36:00,51.1,51.0,30.25,WSW,247,4.0,5.8,100,0.00,,,0.00,Rainwise IP-100,2013-07-09 12:36:00,
2013-07-09 05:41:00,51.1,51.0,30.24,SW,225,3.7,5.1,100,0.00,,,0.00,Rainwise IP-100,2013-07-09 12:41:00,
2013-07-09 05:46:00,51.1,51.0,30.24,SW,225,2.1,9.6,100,0.00,,,0.00,Rainwise IP-100,2013-07-09 12:46:00,
2013-07-09 05:51:00,51.0,51.0,30.25,SSE,157,2.6,6.5,100,0.00,,,0.00,Rainwise IP-100,2013-07-09 12:51:00,
2013-07-09 05:56:00,51.1,51.0,30.25,WNW,292,2.6,6.1,100,0.00,,,0.00,Rainwise IP-100,2013-07-09 12:56:00,
2013-07-09 06:01:00,51.1,51.0,30.25,WNW,292,1.9,6.3,100,0.00,,,0.00,Rainwise IP-100,2013-07-09 13:01:00,
2013-07-09 06:06:00,51.0,51.0,30.24,WNW,292,1.9,6.1,100,0.00,,,0.00,Rainwise IP-100,2013-07-09 13:06:00,
2013-07-09 06:11:00,51.0,51.0,30.25,West,270,0.0,5.6,100,0.00,,,0.00,Rainwise IP-100,2013-07-09 13:11:00,
2013-07-09 06:16:00,51.0,51.0,30.25,SW,225,1.2,4.0,100,0.00,,,0.00,Rainwise IP-100,2013-07-09 13:16:00,
2013-07-09 06:21:00,51.1,51.0,30.24,SW,225,0.0,2.3,100,0.00,,,0.00,Rainwise IP-100,2013-07-09 13:21:00,
2013-07-09 06:26:00,51.1,51.0,30.25,SSW,202,1.9,6.3,100,0.00,,,0.00,Rainwise IP-100,2013-07-09 13:26:00,
2013-07-09 06:31:00,51.0,51.0,30.25,SW,225,3.7,5.6,100,0.00,,,0.00,Rainwise IP-100,2013-07-09 13:31:00,
2013-07-09 06:36:00,51.0,51.0,30.25,SSW,202,0.0,4.7,100,0.00,,,0.00,Rainwise IP-100,2013-07-09 13:36:00,
2013-07-09 06:41:00,51.1,51.0,30.25,WNW,292,1.2,4.0,100,0.00,,,0.00,Rainwise IP-100,2013-07-09 13:41:00,
2013-07-09 06:46:00,51.2,51.0,30.25,WNW,292,2.8,4.7,100,0.00,,,0.00,Rainwise IP-100,2013-07-09 13:46:00,
2013-07-09 06:51:00,51.3,51.0,30.25,WNW,292,1.2,4.0,100,0.00,,,0.00,Rainwise IP-100,2013-07-09 13:51:00,
2013-07-09 06:56:00,51.4,51.0,30.26,WNW,292,0.0,3.5,100,0.00,,,0.00,Rainwise IP-100,2013-07-09 13:56:00,
2013-07-09 07:01:00,51.5,52.0,30.25,WNW,292,0.0,4.4,100,0.00,,,0.00,Rainwise IP-100,2013-07-09 14:01:00,
2013-07-09 07:06:00,51.5,52.0,30.25,WNW,292,1.4,3.3,100,0.00,,,0.00,Rainwise IP-100,2013-07-09 14:06:00,
2013-07-09 07:11:00,51.6,52.0,30.26,WNW,292,3.0,4.2,100,0.00,,,0.00,Rainwise IP-100,2013-07-09 14:11:00,
2013-07-09 07:16:00,51.7,52.0,30.26,WNW,292,0.0,4.4,100,0.00,,,0.00,Rainwise IP-100,2013-07-09 14:16:00,
2013-07-09 07:21:00,51.8,52.0,30.26,NNE,22,0.0,1.4,100,0.00,,,0.00,Rainwise IP-100,2013-07-09 14:21:00,
2013-07-09 07:26:00,52.0,52.0,30.26,West,270,0.0,1.9,100,0.00,,,0.00,Rainwise IP-100,2013-07-09 14:26:00,
2013-07-09 07:31:00,52.3,52.0,30.26,West,270,0.0,1.6,100,0.00,,,0.00,Rainwise IP-100,2013-07-09 14:31:00,
2013-07-09 07:36:00,52.4,52.0,30.26,West,270,0.0,0.0,100,0.00,,,0.00,Rainwise IP-100,2013-07-09 14:36:00,
2013-07-09 07:41:00,52.6,53.0,30.27,West,270,0.0,1.6,100,0.00,,,0.00,Rainwise IP-100,2013-07-09 14:41:00,
2013-07-09 07:46:00,52.7,53.0,30.26,NW,315,0.0,2.3,100,0.00,,,0.00,Rainwise IP-100,2013-07-09 14:46:00,
2013-07-09 07:51:00,52.8,53.0,30.27,NW,315,1.2,2.3,100,0.00,,,0.00,Rainwise IP-100,2013-07-09 14:51:00,
2013-07-09 07:56:00,53.1,53.0,30.26,WNW,292,2.1,2.6,100,0.00,,,0.00,Rainwise IP-100,2013-07-09 14:56:00,
2013-07-09 08:01:00,53.4,53.5,30.27,NNW,337,0.0,3.0,100,0.00,,,0.00,Rainwise IP-100,2013-07-09 15:01:00,
2013-07-09 08:06:00,53.7,53.5,30.27,NNE,22,0.0,0.0,100,0.00,,,0.00,Rainwise IP-100,2013-07-09 15:06:00,
2013-07-09 08:11:00,53.9,54.0,30.27,SE,135,0.0,3.0,100,0.00,,,0.00,Rainwise IP-100,2013-07-09 15:11:00,
2013-07-09 08:16:00,54.1,54.0,30.27,SE,135,0.0,1.9,100,0.00,,,0.00,Rainwise IP-100,2013-07-09 15:16:00,
2013-07-09 08:21:00,54.1,54.0,30.27,SSE,157,3.3,3.3,100,0.00,,,0.00,Rainwise IP-100,2013-07-09 15:21:00,
2013-07-09 08:26:00,54.0,54.0,30.27,SSE,157,2.3,4.2,100,0.00,,,0.00,Rainwise IP-100,2013-07-09 15:26:00,
2013-07-09 08:31:00,54.0,54.0,30.27,SSE,157,0.0,3.7,100,0.00,,,0.00,Rainwise IP-100,2013-07-09 15:31:00,
2013-07-09 08:36:00,54.3,54.5,30.28,SSE,157,1.2,2.1,100,0.00,,,0.00,Rainwise IP-100,2013-07-09 15:36:00,
2013-07-09 08:41:00,54.6,54.5,30.28,SE,135,0.0,2.6,100,0.00,,,0.00,Rainwise IP-100,2013-07-09 15:41:00,
2013-07-09 08:46:00,54.7,54.5,30.27,ESE,112,2.6,3.5,100,0.00,,,0.00,Rainwise IP-100,2013-07-09 15:46:00,
2013-07-09 08:51:00,54.7,54.5,30.28,SE,135,0.0,3.5,100,0.00,,,0.00,Rainwise IP-100,2013-07-09 15:51:00,
2013-07-09 08:56:00,54.9,55.0,30.28,SSE,157,0.0,3.7,100,0.00,,,0.00,Rainwise IP-100,2013-07-09 15:56:00,
2013-07-09 09:01:00,55.2,55.0,30.28,SSW,202,0.0,2.1,100,0.00,,,0.00,Rainwise IP-100,2013-07-09 16:01:00,
2013-07-09 09:06:00,55.6,56.0,30.28,East,90,1.6,4.0,100,0.00,,,0.00,Rainwise IP-100,2013-07-09 16:06:00,
2013-07-09 09:11:00,55.7,56.0,30.28,SSE,157,3.0,3.5,100,0.00,,,0.00,Rainwise IP-100,2013-07-09 16:11:00,
2013-07-09 09:16:00,55.6,56.0,30.28,SSW,202,0.0,3.7,100,0.00,,,0.00,Rainwise IP-100,2013-07-09 16:16:00,
2013-07-09 09:21:00,55.7,56.0,30.28,ENE,67,1.9,2.1,100,0.00,,,0.00,Rainwise IP-100,2013-07-09 16:21:00,
2013-07-09 09:26:00,56.1,56.0,30.28,SW,225,3.0,3.0,100,0.00,,,0.00,Rainwise IP-100,2013-07-09 16:26:00,
2013-07-09 09:31:00,56.2,56.0,30.27,NNW,337,1.2,4.9,100,0.00,,,0.00,Rainwise IP-100,2013-07-09 16:31:00,
2013-07-09 09:36:00,56.5,56.5,30.27,WSW,247,1.9,3.5,100,0.00,,,0.00,Rainwise IP-100,2013-07-09 16:36:00,
2013-07-09 09:41:00,56.9,57.0,30.27,SSE,157,1.4,3.3,100,0.00,,,0.00,Rainwise IP-100,2013-07-09 16:41:00,
2013-07-09 09:46:00,57.3,57.5,30.27,SW,225,1.4,2.6,100,0.00,,,0.00,Rainwise IP-100,2013-07-09 16:46:00,
2013-07-09 09:51:00,58.5,59.0,30.27,SE,135,0.0,3.0,100,0.00,,,0.00,Rainwise IP-100,2013-07-09 16:51:00,
2013-07-09 09:56:00,58.9,59.0,30.27,WNW,292,1.9,4.0,100,0.00,,,0.00,Rainwise IP-100,2013-07-09 16:56:00,
2013-07-09 10:01:00,58.9,59.0,30.27,WSW,247,2.6,5.4,100,0.00,,,0.00,Rainwise IP-100,2013-07-09 17:01:00,
2013-07-09 10:06:00,59.1,59.0,30.26,SSW,202,4.0,6.3,100,0.00,,,0.00,Rainwise IP-100,2013-07-09 17:06:00,
2013-07-09 10:11:00,59.3,59.5,30.27,SW,225,1.9,5.1,100,0.00,,,0.00,Rainwise IP-100,2013-07-09 17:11:00,
2013-07-09 10:16:00,59.7,59.5,30.27,WSW,247,1.2,5.4,100,0.00,,,0.00,Rainwise IP-100,2013-07-09 17:16:00,
2013-07-09 10:21:00,59.8,59.5,30.27,SW,225,4.7,7.7,99,0.00,,,0.00,Rainwise IP-100,2013-07-09 17:21:00,
2013-07-09 10:26:00,59.9,59.5,30.27,SSE,157,4.0,9.3,98,0.00,,,0.00,Rainwise IP-100,2013-07-09 17:26:00,
2013-07-09 10:31:00,60.3,59.5,30.27,NNW,337,0.0,10.0,96,0.00,,,0.00,Rainwise IP-100,2013-07-09 17:31:00,
2013-07-09 10:36:00,60.7,58.0,30.27,SW,225,10.3,11.4,93,0.00,,,0.00,Rainwise IP-100,2013-07-09 17:36:00,
2013-07-09 10:41:00,60.7,57.5,30.27,South,180,4.4,11.9,90,0.00,,,0.00,Rainwise IP-100,2013-07-09 17:41:00,
2013-07-09 10:46:00,60.6,57.0,30.27,SSE,157,2.1,11.0,89,0.00,,,0.00,Rainwise IP-100,2013-07-09 17:46:00,
2013-07-09 10:51:00,60.9,57.5,30.27,WSW,247,6.8,11.7,89,0.00,,,0.00,Rainwise IP-100,2013-07-09 17:51:00,
2013-07-09 10:56:00,61.2,57.5,30.27,West,270,2.3,12.4,88,0.00,,,0.00,Rainwise IP-100,2013-07-09 17:56:00,
2013-07-09 11:01:00,61.4,57.5,30.27,SW,225,9.3,10.7,87,0.00,,,0.00,Rainwise IP-100,2013-07-09 18:01:00,
2013-07-09 11:06:00,61.8,57.5,30.27,WSW,247,1.2,11.7,86,0.00,,,0.00,Rainwise IP-100,2013-07-09 18:06:00,
2013-07-09 11:11:00,61.7,57.0,30.27,SW,225,6.5,8.2,85,0.00,,,0.00,Rainwise IP-100,2013-07-09 18:11:00,
2013-07-09 11:16:00,62.0,57.5,30.26,NNW,337,3.5,9.8,85,0.00,,,0.00,Rainwise IP-100,2013-07-09 18:16:00,
2013-07-09 11:21:00,62.7,57.0,30.27,West,270,3.3,11.2,83,0.00,,,0.00,Rainwise IP-100,2013-07-09 18:21:00,
2013-07-09 11:26:00,62.4,57.0,30.27,NNW,337,4.0,10.5,83,0.00,,,0.00,Rainwise IP-100,2013-07-09 18:26:00,
2013-07-09 11:31:00,62.0,56.5,30.27,WSW,247,1.4,13.1,83,0.00,,,0.00,Rainwise IP-100,2013-07-09 18:31:00,
2013-07-09 11:36:00,62.3,57.0,30.28,WSW,247,5.4,10.7,83,0.00,,,0.00,Rainwise IP-100,2013-07-09 18:36:00,
2013-07-09 11:41:00,62.3,57.0,30.27,SSW,202,6.5,12.4,82,0.00,,,0.00,Rainwise IP-100,2013-07-09 18:41:00,
2013-07-09 11:46:00,61.8,56.5,30.28,SW,225,3.3,12.1,83,0.00,,,0.00,Rainwise IP-100,2013-07-09 18:46:00,
2013-07-09 11:51:00,61.9,56.5,30.26,SW,225,6.8,14.2,83,0.00,,,0.00,Rainwise IP-100,2013-07-09 18:51:00,
2013-07-09 11:56:00,62.5,57.0,30.27,SSW,202,2.6,10.5,82,0.00,,,0.00,Rainwise IP-100,2013-07-09 18:56:00,
2013-07-09 12:01:00,62.4,57.0,30.27,WSW,247,2.3,14.5,82,0.00,,,0.00,Rainwise IP-100,2013-07-09 19:01:00,
2013-07-09 12:06:00,62.1,56.0,30.27,WNW,292,4.7,14.2,81,0.00,,,0.00,Rainwise IP-100,2013-07-09 19:06:00,
2013-07-09 12:11:00,62.6,56.5,30.27,SSE,157,4.2,11.2,81,0.00,,,0.00,Rainwise IP-100,2013-07-09 19:11:00,
2013-07-09 12:16:00,62.7,56.5,30.27,SSW,202,7.9,14.0,80,0.00,,,0.00,Rainwise IP-100,2013-07-09 19:16:00,
2013-07-09 12:21:00,62.7,56.0,30.27,SW,225,1.6,14.7,79,0.00,,,0.00,Rainwise IP-100,2013-07-09 19:21:00,
2013-07-09 12:26:00,62.6,56.0,30.28,SW,225,8.2,14.9,79,0.00,,,0.00,Rainwise IP-100,2013-07-09 19:26:00,
2013-07-09 12:31:00,61.8,56.0,30.27,WSW,247,9.6,13.5,80,0.00,,,0.00,Rainwise IP-100,2013-07-09 19:31:00,
2013-07-09 12:36:00,61.4,56.0,30.27,WSW,247,9.1,10.0,81,0.00,,,0.00,Rainwise IP-100,2013-07-09 19:36:00,
2013-07-09 12:41:00,61.9,56.0,30.28,SSE,157,4.9,13.8,80,0.00,,,0.00,Rainwise IP-100,2013-07-09 19:41:00,
2013-07-09 12:46:00,62.3,56.0,30.27,WSW,247,5.1,14.7,79,0.00,,,0.00,Rainwise IP-100,2013-07-09 19:46:00,
2013-07-09 12:51:00,62.5,56.0,30.27,WNW,292,1.2,10.3,79,0.00,,,0.00,Rainwise IP-100,2013-07-09 19:51:00,
2013-07-09 12:56:00,62.3,55.0,30.27,SW,225,8.4,15.9,78,0.00,,,0.00,Rainwise IP-100,2013-07-09 19:56:00,
2013-07-09 13:01:00,62.0,55.0,30.28,NW,315,4.9,13.1,78,0.00,,,0.00,Rainwise IP-100,2013-07-09 20:01:00,
2013-07-09 13:06:00,62.2,55.0,30.26,SW,225,6.8,12.8,78,0.00,,,0.00,Rainwise IP-100,2013-07-09 20:06:00,
2013-07-09 13:11:00,62.3,55.0,30.26,WNW,292,10.0,15.9,77,0.00,,,0.00,Rainwise IP-100,2013-07-09 20:11:00,
2013-07-09 13:16:00,61.9,55.0,30.27,WSW,247,5.8,16.3,78,0.00,,,0.00,Rainwise IP-100,2013-07-09 20:16:00,
2013-07-09 13:21:00,62.1,55.0,30.26,SSE,157,5.1,15.6,79,0.00,,,0.00,Rainwise IP-100,2013-07-09 20:21:00,
2013-07-09 13:26:00,62.5,55.0,30.27,WSW,247,8.2,11.9,78,0.00,,,0.00,Rainwise IP-100,2013-07-09 20:26:00,
2013-07-09 13:31:00,62.3,55.0,30.27,WNW,292,7.2,15.9,78,0.00,,,0.00,Rainwise IP-100,2013-07-09 20:31:00,
2013-07-09 13:36:00,62.0,55.0,30.27,West,270,6.1,12.4,78,0.00,,,0.00,Rainwise IP-100,2013-07-09 20:36:00,
2013-07-09 13:41:00,61.7,54.5,30.26,ENE,67,4.0,16.8,78,0.00,,,0.00,Rainwise IP-100,2013-07-09 20:41:00,
2013-07-09 13:46:00,61.9,55.0,30.27,WSW,247,5.4,14.0,78,0.00,,,0.00,Rainwise IP-100,2013-07-09 20:46:00,
2013-07-09 13:51:00,61.8,55.0,30.27,WSW,247,7.9,13.8,78,0.00,,,0.00,Rainwise IP-100,2013-07-09 20:51:00,
2013-07-09 13:56:00,61.7,54.5,30.26,WNW,292,6.3,10.3,79,0.00,,,0.00,Rainwise IP-100,2013-07-09 20:56:00,
2013-07-09 14:01:00,61.8,55.0,30.27,SSW,202,5.8,12.6,79,0.00,,,0.00,Rainwise IP-100,2013-07-09 21:01:00,
2013-07-09 14:06:00,61.5,54.5,30.27,WSW,247,7.2,11.2,79,0.00,,,0.00,Rainwise IP-100,2013-07-09 21:06:00,
2013-07-09 14:11:00,61.4,54.5,30.26,WNW,292,4.9,11.9,79,0.00,,,0.00,Rainwise IP-100,2013-07-09 21:11:00,
2013-07-09 14:16:00,61.5,54.5,30.26,SSW,202,4.4,15.9,79,0.00,,,0.00,Rainwise IP-100,2013-07-09 21:16:00,
2013-07-09 14:21:00,61.2,54.5,30.27,WSW,247,4.9,15.6,79,0.00,,,0.00,Rainwise IP-100,2013-07-09 21:21:00,
2013-07-09 14:26:00,61.1,54.0,30.26,SSW,202,4.9,12.6,78,0.00,,,0.00,Rainwise IP-100,2013-07-09 21:26:00,
2013-07-09 14:31:00,61.6,54.5,30.25,SSE,157,2.1,11.9,78,0.00,,,0.00,Rainwise IP-100,2013-07-09 21:31:00,
2013-07-09 14:36:00,61.5,54.0,30.26,WNW,292,2.1,18.7,77,0.00,,,0.00,Rainwise IP-100,2013-07-09 21:36:00,
2013-07-09 14:41:00,61.8,54.5,30.26,WNW,292,2.6,18.2,77,0.00,,,0.00,Rainwise IP-100,2013-07-09 21:41:00,
2013-07-09 14:46:00,62.4,54.5,30.26,NNW,337,3.3,13.8,76,0.00,,,0.00,Rainwise IP-100,2013-07-09 21:46:00,
2013-07-09 14:51:00,62.1,54.5,30.25,SW,225,3.0,14.2,76,0.00,,,0.00,Rainwise IP-100,2013-07-09 21:51:00,
2013-07-09 14:56:00,62.0,54.5,30.25,SSW,202,2.8,14.9,76,0.00,,,0.00,Rainwise IP-100,2013-07-09 21:56:00,
2013-07-09 15:01:00,62.0,54.5,30.26,WSW,247,1.6,11.4,76,0.00,,,0.00,Rainwise IP-100,2013-07-09 22:01:00,
2013-07-09 15:06:00,62.4,54.5,30.25,ESE,112,2.1,12.6,76,0.00,,,0.00,Rainwise IP-100,2013-07-09 22:06:00,
2013-07-09 15:11:00,62.8,55.0,30.25,WSW,247,6.8,11.9,75,0.00,,,0.00,Rainwise IP-100,2013-07-09 22:11:00,
2013-07-09 15:15:00,62.8,55.0,30.25,ESE,112,4.2,11.4,75,0.00,,,0.00,Rainwise IP-100,2013-07-09 22:15:00,
2013-07-09 15:20:00,62.7,54.5,30.25,West,270,1.6,13.8,76,0.00,,,0.00,Rainwise IP-100,2013-07-09 22:20:00,
2013-07-09 15:25:00,62.6,54.5,30.25,WNW,292,3.0,12.6,76,0.00,,,0.00,Rainwise IP-100,2013-07-09 22:25:00,
2013-07-09 15:30:00,62.1,54.5,30.25,West,270,8.9,14.5,76,0.00,,,0.00,Rainwise IP-100,2013-07-09 22:30:00,
2013-07-09 15:35:00,61.8,54.5,30.25,SW,225,2.8,12.8,77,0.00,,,0.00,Rainwise IP-100,2013-07-09 22:35:00,
2013-07-09 15:40:00,62.2,54.5,30.25,WSW,247,6.5,12.6,77,0.00,,,0.00,Rainwise IP-100,2013-07-09 22:40:00,
2013-07-09 15:45:00,62.3,55.0,30.24,WSW,247,2.6,14.9,77,0.00,,,0.00,Rainwise IP-100,2013-07-09 22:45:00,
2013-07-09 15:50:00,62.1,54.5,30.24,ESE,112,1.6,11.4,77,0.00,,,0.00,Rainwise IP-100,2013-07-09 22:50:00,
2013-07-09 15:55:00,61.8,54.5,30.24,WSW,247,4.7,14.7,77,0.00,,,0.00,Rainwise IP-100,2013-07-09 22:55:00,
2013-07-09 16:00:00,61.6,54.5,30.24,NW,315,1.9,14.9,78,0.00,,,0.00,Rainwise IP-100,2013-07-09 23:00:00,
2013-07-09 16:05:00,61.8,55.0,30.24,WSW,247,4.9,14.0,78,0.00,,,0.00,Rainwise IP-100,2013-07-09 23:05:00,
2013-07-09 16:10:00,61.3,54.5,30.24,WSW,247,10.0,12.6,78,0.00,,,0.00,Rainwise IP-100,2013-07-09 23:10:00,
2013-07-09 16:15:00,60.9,54.5,30.24,WNW,292,7.7,14.7,80,0.00,,,0.00,Rainwise IP-100,2013-07-09 23:15:00,
2013-07-09 16:20:00,61.0,54.5,30.24,NNE,22,3.0,18.7,80,0.00,,,0.00,Rainwise IP-100,2013-07-09 23:20:00,
2013-07-09 16:25:00,61.6,54.5,30.24,NNE,22,2.1,7.7,79,0.00,,,0.00,Rainwise IP-100,2013-07-09 23:25:00,
2013-07-09 16:30:00,62.2,55.0,30.23,SSE,157,3.7,16.8,78,0.00,,,0.00,Rainwise IP-100,2013-07-09 23:30:00,
2013-07-09 16:35:00,61.6,54.5,30.23,North,360,3.0,17.3,78,0.00,,,0.00,Rainwise IP-100,2013-07-09 23:35:00,
2013-07-09 16:40:00,61.2,54.5,30.23,NW,315,0.0,9.3,79,0.00,,,0.00,Rainwise IP-100,2013-07-09 23:40:00,
2013-07-09 16:45:00,61.1,54.5,30.23,SSW,202,4.4,12.4,80,0.00,,,0.00,Rainwise IP-100,2013-07-09 23:45:00,
2013-07-09 16:50:00,60.5,54.0,30.23,NW,315,6.3,11.7,80,0.00,,,0.00,Rainwise IP-100,2013-07-09 23:50:00,
2013-07-09 16:55:00,60.0,54.0,30.23,West,270,3.3,13.5,81,0.00,,,0.00,Rainwise IP-100,2013-07-09 23:55:00,
2013-07-09 17:00:00,60.0,54.5,30.22,SSW,202,7.7,14.0,82,0.00,,,0.00,Rainwise IP-100,2013-07-10 00:00:00,
2013-07-09 17:05:00,60.1,54.5,30.22,WSW,247,2.6,14.0,82,0.00,,,0.00,Rainwise IP-100,2013-07-10 00:05:00,
2013-07-09 17:10:00,59.9,54.5,30.22,SSW,202,1.4,12.4,82,0.00,,,0.00,Rainwise IP-100,2013-07-10 00:10:00,
2013-07-09 17:15:00,60.1,54.5,30.22,WSW,247,4.9,10.5,82,0.00,,,0.00,Rainwise IP-100,2013-07-10 00:15:00,
2013-07-09 17:20:00,60.6,54.5,30.22,SE,135,0.0,16.1,81,0.00,,,0.00,Rainwise IP-100,2013-07-10 00:20:00,
2013-07-09 17:25:00,60.4,54.5,30.22,West,270,4.2,11.4,82,0.00,,,0.00,Rainwise IP-100,2013-07-10 00:25:00,
2013-07-09 17:30:00,60.2,54.5,30.22,WNW,292,3.0,12.8,82,0.00,,,0.00,Rainwise IP-100,2013-07-10 00:30:00,
2013-07-09 17:35:00,59.7,54.0,30.22,SSW,202,10.5,11.4,83,0.00,,,0.00,Rainwise IP-100,2013-07-10 00:35:00,
2013-07-09 17:40:00,58.9,54.0,30.21,West,270,4.9,12.8,84,0.00,,,0.00,Rainwise IP-100,2013-07-10 00:40:00,
2013-07-09 17:45:00,58.2,54.0,30.21,SSW,202,4.0,15.4,86,0.00,,,0.00,Rainwise IP-100,2013-07-10 00:45:00,
2013-07-09 17:50:00,58.0,54.5,30.21,SSW,202,6.8,13.5,87,0.00,,,0.00,Rainwise IP-100,2013-07-10 00:50:00,
2013-07-09 17:55:00,58.0,54.5,30.20,West,270,2.6,12.8,88,0.00,,,0.00,Rainwise IP-100,2013-07-10 00:55:00,
2013-07-09 18:00:00,58.0,54.5,30.20,WSW,247,2.3,11.0,88,0.00,,,0.00,Rainwise IP-100,2013-07-10 01:00:00,
2013-07-09 18:05:00,57.9,54.5,30.20,SW,225,11.2,15.9,88,0.00,,,0.00,Rainwise IP-100,2013-07-10 01:05:00,
2013-07-09 18:10:00,57.5,54.5,30.20,WSW,247,5.1,13.5,89,0.00,,,0.00,Rainwise IP-100,2013-07-10 01:10:00,
2013-07-09 18:15:00,57.3,54.5,30.20,SW,225,7.9,11.9,89,0.00,,,0.00,Rainwise IP-100,2013-07-10 01:15:00,
2013-07-09 18:20:00,57.5,54.5,30.20,SSW,202,8.6,14.7,89,0.00,,,0.00,Rainwise IP-100,2013-07-10 01:20:00,
2013-07-09 18:25:00,57.3,54.5,30.20,WSW,247,1.2,13.8,89,0.00,,,0.00,Rainwise IP-100,2013-07-10 01:25:00,
2013-07-09 18:30:00,56.9,54.0,30.20,West,270,1.6,7.2,90,0.00,,,0.00,Rainwise IP-100,2013-07-10 01:30:00,
2013-07-09 18:35:00,56.8,54.5,30.20,SSW,202,4.4,12.1,91,0.00,,,0.00,Rainwise IP-100,2013-07-10 01:35:00,
2013-07-09 18:40:00,56.5,54.0,30.20,SSW,202,4.7,11.7,91,0.00,,,0.00,Rainwise IP-100,2013-07-10 01:40:00,
2013-07-09 18:45:00,56.2,53.5,30.20,WSW,247,2.1,11.9,92,0.00,,,0.00,Rainwise IP-100,2013-07-10 01:45:00,
2013-07-09 18:50:00,56.3,54.0,30.20,SSE,157,3.3,13.1,92,0.00,,,0.00,Rainwise IP-100,2013-07-10 01:50:00,
2013-07-09 18:55:00,56.0,54.0,30.20,WSW,247,5.4,14.0,93,0.00,,,0.00,Rainwise IP-100,2013-07-10 01:55:00,
2013-07-09 19:00:00,55.7,54.0,30.20,NNW,337,3.5,11.9,93,0.00,,,0.00,Rainwise IP-100,2013-07-10 02:00:00,
2013-07-09 19:05:00,55.4,53.5,30.20,WSW,247,10.5,10.5,94,0.00,,,0.00,Rainwise IP-100,2013-07-10 02:05:00,
2013-07-09 19:10:00,55.4,54.0,30.20,SSE,157,3.3,10.5,95,0.00,,,0.00,Rainwise IP-100,2013-07-10 02:10:00,
2013-07-09 19:15:00,55.5,54.5,30.20,SW,225,4.0,9.8,95,0.00,,,0.00,Rainwise IP-100,2013-07-10 02:15:00,
2013-07-09 19:20:00,55.6,54.5,30.20,SSW,202,1.6,9.1,95,0.00,,,0.00,Rainwise IP-100,2013-07-10 02:20:00,
2013-07-09 19:25:00,55.5,54.5,30.20,SSE,157,3.7,11.2,95,0.00,,,0.00,Rainwise IP-100,2013-07-10 02:25:00,
2013-07-09 19:30:00,55.3,54.0,30.20,SSW,202,6.3,12.1,95,0.00,,,0.00,Rainwise IP-100,2013-07-10 02:30:00,
2013-07-09 19:35:00,55.2,54.0,30.20,SSE,157,1.9,12.4,95,0.00,,,0.00,Rainwise IP-100,2013-07-10 02:35:00,
2013-07-09 19:40:00,55.1,54.0,30.20,WNW,292,3.5,11.0,95,0.00,,,0.00,Rainwise IP-100,2013-07-10 02:40:00,
2013-07-09 19:45:00,54.8,54.0,30.20,SW,225,1.6,11.9,95,0.00,,,0.00,Rainwise IP-100,2013-07-10 02:45:00,
2013-07-09 19:50:00,54.6,53.5,30.20,WSW,247,3.3,11.9,95,0.00,,,0.00,Rainwise IP-100,2013-07-10 02:50:00,
2013-07-09 19:55:00,54.6,53.5,30.20,WSW,247,3.3,10.5,96,0.00,,,0.00,Rainwise IP-100,2013-07-10 02:55:00,
2013-07-09 20:00:00,54.5,53.5,30.20,WSW,247,3.7,14.2,96,0.00,,,0.00,Rainwise IP-100,2013-07-10 03:00:00,
2013-07-09 20:05:00,54.2,53.5,30.20,WNW,292,2.6,12.4,97,0.00,,,0.00,Rainwise IP-100,2013-07-10 03:05:00,
2013-07-09 20:10:00,54.1,53.5,30.20,SSW,202,3.5,10.0,97,0.00,,,0.00,Rainwise IP-100,2013-07-10 03:10:00,
2013-07-09 20:15:00,54.0,53.5,30.20,SW,225,4.9,10.5,97,0.00,,,0.00,Rainwise IP-100,2013-07-10 03:15:00,
2013-07-09 20:20:00,53.8,53.5,30.20,SE,135,1.9,12.1,97,0.00,,,0.00,Rainwise IP-100,2013-07-10 03:20:00,
2013-07-09 20:25:00,53.9,53.5,30.20,West,270,3.3,10.0,98,0.00,,,0.00,Rainwise IP-100,2013-07-10 03:25:00,
2013-07-09 20:30:00,54.0,53.5,30.20,SSE,157,1.9,7.0,98,0.00,,,0.00,Rainwise IP-100,2013-07-10 03:30:00,
2013-07-09 20:35:00,54.1,53.5,30.20,WSW,247,3.7,8.9,98,0.00,,,0.00,Rainwise IP-100,2013-07-10 03:35:00,
2013-07-09 20:40:00,54.1,53.5,30.20,SW,225,9.1,10.7,98,0.00,,,0.00,Rainwise IP-100,2013-07-10 03:40:00,
2013-07-09 20:45:00,54.1,53.5,30.20,SSW,202,4.0,13.1,98,0.00,,,0.00,Rainwise IP-100,2013-07-10 03:45:00,
2013-07-09 20:50:00,54.0,54.0,30.20,SSW,202,2.1,8.4,99,0.00,,,0.00,Rainwise IP-100,2013-07-10 03:50:00,
2013-07-09 20:55:00,53.9,54.0,30.20,WSW,247,5.4,11.7,99,0.00,,,0.00,Rainwise IP-100,2013-07-10 03:55:00,
2013-07-09 21:00:00,53.8,54.0,30.20,WNW,292,1.6,8.9,99,0.00,,,0.00,Rainwise IP-100,2013-07-10 04:00:00,
2013-07-09 21:01:00,53.8,54.0,30.20,WSW,247,2.8,8.9,99,0.00,,,0.00,Rainwise IP-100,2013-07-10 04:01:00,
2013-07-09 21:06:00,53.8,54.0,30.20,NW,315,2.6,7.2,99,0.00,,,0.00,Rainwise IP-100,2013-07-10 04:06:00,
2013-07-09 21:11:00,53.9,54.0,30.20,West,270,2.8,10.5,99,0.00,,,0.00,Rainwise IP-100,2013-07-10 04:11:00,
2013-07-09 21:16:00,54.0,54.0,30.20,SW,225,4.4,7.2,99,0.00,,,0.00,Rainwise IP-100,2013-07-10 04:16:00,
2013-07-09 21:21:00,53.8,54.0,30.21,SSW,202,4.7,14.2,99,0.00,,,0.00,Rainwise IP-100,2013-07-10 04:21:00,
2013-07-09 21:26:00,53.6,53.5,30.21,West,270,6.1,17.3,99,0.00,,,0.00,Rainwise IP-100,2013-07-10 04:26:00,
2013-07-09 21:31:00,53.6,53.5,30.21,WSW,247,1.9,12.1,99,0.00,,,0.00,Rainwise IP-100,2013-07-10 04:31:00,
2013-07-09 21:36:00,53.6,53.5,30.21,SW,225,7.5,11.2,99,0.00,,,0.00,Rainwise IP-100,2013-07-10 04:36:00,
2013-07-09 21:41:00,53.4,53.5,30.21,West,270,5.1,14.2,99,0.00,,,0.00,Rainwise IP-100,2013-07-10 04:41:00,
2013-07-09 21:46:00,53.2,53.0,30.22,SSW,202,2.3,13.3,99,0.00,,,0.00,Rainwise IP-100,2013-07-10 04:46:00,
2013-07-09 21:51:00,53.1,53.0,30.22,WSW,247,5.8,12.4,99,0.00,,,0.00,Rainwise IP-100,2013-07-10 04:51:00,
2013-07-09 21:56:00,53.0,53.0,30.22,WSW,247,8.9,14.0,99,0.00,,,0.00,Rainwise IP-100,2013-07-10 04:56:00,
2013-07-09 22:01:00,53.0,53.0,30.23,WSW,247,4.2,12.6,100,0.00,,,0.00,Rainwise IP-100,2013-07-10 05:01:00,
2013-07-09 22:06:00,53.0,53.0,30.23,SSE,157,2.1,11.7,100,0.00,,,0.00,Rainwise IP-100,2013-07-10 05:06:00,
2013-07-09 22:11:00,52.9,53.0,30.23,SW,225,5.6,11.4,100,0.00,,,0.00,Rainwise IP-100,2013-07-10 05:11:00,
2013-07-09 22:16:00,52.9,53.0,30.22,SSW,202,12.4,14.0,100,0.00,,,0.00,Rainwise IP-100,2013-07-10 05:16:00,
2013-07-09 22:21:00,52.7,53.0,30.23,SW,225,6.3,16.6,100,0.00,,,0.00,Rainwise IP-100,2013-07-10 05:21:00,
2013-07-09 22:26:00,52.6,53.0,30.23,WSW,247,6.8,17.7,100,0.00,,,0.00,Rainwise IP-100,2013-07-10 05:26:00,
2013-07-09 22:31:00,52.6,53.0,30.23,SW,225,3.5,15.6,100,0.00,,,0.00,Rainwise IP-100,2013-07-10 05:31:00,
2013-07-09 22:36:00,52.5,53.0,30.23,SSW,202,10.0,16.8,100,0.00,,,0.00,Rainwise IP-100,2013-07-10 05:36:00,
2013-07-09 22:41:00,52.5,53.0,30.23,SW,225,3.0,15.9,100,0.00,,,0.00,Rainwise IP-100,2013-07-10 05:41:00,
2013-07-09 22:46:00,52.5,53.0,30.23,West,270,3.3,16.8,100,0.00,,,0.00,Rainwise IP-100,2013-07-10 05:46:00,
2013-07-09 22:51:00,52.4,52.0,30.24,SSW,202,4.0,12.4,100,0.00,,,0.00,Rainwise IP-100,2013-07-10 05:51:00,
2013-07-09 22:56:00,52.3,52.0,30.23,WSW,247,9.6,14.5,100,0.00,,,0.00,Rainwise IP-100,2013-07-10 05:56:00,
2013-07-09 23:01:00,52.4,52.0,30.23,WSW,247,10.0,18.4,100,0.00,,,0.00,Rainwise IP-100,2013-07-10 06:01:00,
2013-07-09 23:06:00,52.3,52.0,30.23,WNW,292,1.2,18.9,100,0.00,,,0.00,Rainwise IP-100,2013-07-10 06:06:00,
2013-07-09 23:11:00,52.2,52.0,30.23,WNW,292,3.5,14.2,100,0.00,,,0.00,Rainwise IP-100,2013-07-10 06:11:00,
2013-07-09 23:16:00,52.3,52.0,30.24,SW,225,10.3,14.7,100,0.00,,,0.00,Rainwise IP-100,2013-07-10 06:16:00,
2013-07-09 23:21:00,52.5,53.0,30.23,NNE,22,2.1,17.0,100,0.00,,,0.00,Rainwise IP-100,2013-07-10 06:21:00,
2013-07-09 23:26:00,52.5,53.0,30.23,WSW,247,13.3,18.4,100,0.00,,,0.00,Rainwise IP-100,2013-07-10 06:26:00,
2013-07-09 23:31:00,52.3,52.0,30.23,SW,225,11.0,18.7,100,0.00,,,0.00,Rainwise IP-100,2013-07-10 06:31:00,
2013-07-09 23:36:00,52.3,52.0,30.23,SW,225,7.7,18.0,100,0.00,,,0.00,Rainwise IP-100,2013-07-10 06:36:00,
2013-07-09 23:41:00,52.5,53.0,30.24,SW,225,5.4,15.4,100,0.00,,,0.00,Rainwise IP-100,2013-07-10 06:41:00,
2013-07-09 23:46:00,52.6,53.0,30.24,NE,45,2.6,12.8,100,0.00,,,0.00,Rainwise IP-100,2013-07-10 06:46:00,
2013-07-09 23:51:00,52.6,53.0,30.23,West,270,4.7,12.1,100,0.00,,,0.00,Rainwise IP-100,2013-07-10 06:51:00,
2013-07-09 23:56:00,52.5,53.0,30.23,SSW,202,7.0,19.1,100,0.00,,,0.00,Rainwise IP-100,2013-07-10 06:56:00,